This is the latest recevied weather packets stored in our database for station/object KQ4LLM. If no packets are shown the sender has not sent any weather packets the latest 10 day(s).
| Time | Temp. | Humidity | Pressure | Rain* | Wind** | Luminosity | Snow |
|---|---|---|---|---|---|---|---|
| 1777568108 | 20° C | 71% | - | 0 mm | - | - | - |
| 1777567804 | 20° C | 69% | - | 0 mm | - | - | - |
| 1777567500 | 20° C | 68% | - | 0 mm | - | - | - |
| 1777567198 | 20° C | 72% | - | 0 mm | - | - | - |
| 1777566896 | 20° C | 71% | - | 0 mm | - | - | - |
| 1777566593 | 19.44° C | 71% | - | 0 mm | - | - | - |
| 1777566291 | 20° C | 71% | - | 0 mm | - | - | - |
| 1777565989 | 20° C | 70% | - | 0 mm | - | - | - |
| 1777565689 | 19.44° C | 72% | - | 0 mm | - | - | - |
| 1777565386 | 19.44° C | 74% | - | 0 mm | - | - | - |
| 1777565082 | 19.44° C | 71% | - | 0 mm | - | - | - |
| 1777564778 | 19.44° C | 74% | - | 0 mm | - | - | - |
| 1777564473 | 19.44° C | 72% | - | 0 mm | - | - | - |
| 1777564169 | 19.44° C | 70% | - | 0 mm | - | - | - |
| 1777563865 | 19.44° C | 74% | - | 0 mm | - | - | - |
| 1777563561 | 18.89° C | 74% | - | 0 mm | - | - | - |
| 1777563261 | 18.89° C | 74% | - | 0 mm | - | - | - |
| 1777562958 | 18.89° C | 73% | - | 0 mm | - | - | - |
| 1777562654 | 18.89° C | 74% | - | 0 mm | - | - | - |
| 1777562348 | 18.33° C | 74% | - | 0 mm | - | - | - |
| 1777562044 | 18.33° C | 76% | - | 0 mm | - | - | - |
| 1777561742 | 17.78° C | 75% | - | 0 mm | - | - | - |
| 1777561437 | 17.78° C | 76% | - | 0 mm | - | - | - |
| 1777561132 | 17.78° C | 77% | - | 0 mm | - | - | - |
| 1777560827 | 17.78° C | 75% | - | 0 mm | - | - | - |
* Rain latest hour (hover to see other rain measurements)
** Current wind speed in m/s (hover to see current wind gust speed)